ボアッティーニ彗星

P/2009 Q4 ( Boattini )

English version
Home page
Updated on March 16, 2010

---------------------------------------------------------------------

・ プロフィール

発見日 2009年8月26日
発見光度 18.9等
発見者 A. Boattini (Catalina)

・ 写真集

・ 軌道要素

Epoch 2009 Nov. 25.0 TT = JDT 2455160.5
T 2009 Nov. 19.92976 TT                                 MPC
q   1.3207854            (2000.0)            P               Q
n   0.17741359     Peri.  320.01998     +0.03105513     -0.98810497
a   3.1367371      Node   127.66771     +0.95878361     -0.01312996
e   0.5789302      Incl.   10.96861     +0.28243509     +0.15321934
P   5.56

・ 星図

・ 光度変化

        m1 = 10.5 + 5 logΔ + 33 log r

---------------------------------------------------------------------

軌道要素はM.P.E.C. 2009-U130に掲載されたものです。
星図はステラナビゲータ Ver.8 (アストロアーツ) で作成したものです。
光度グラフはComet for Windowsで作成したものです。

---------------------------------------------------------------------

Copyright(C) Seiichi Yoshida (comet@aerith.net). All rights reserved.